Change the Weather History Date:

Friday, December 5, 2014

  Actual Average Record
Temperature  
Mean Temperature 38 °F -  
Max Temperature 42 °F 43 °F 72 °F (2001)
Min Temperature 34 °F 33 °F 18 °F (2005)
Degree Days  
Heating Degree Days 27    
Moisture  
Dew Point 33 °F    
Average Humidity 79    
Maximum Humidity 100    
Minimum Humidity 59    
Precipitation  
Precipitation 0.13 in - - ()
Sea Level Pressure  
Sea Level Pressure 30.23 in    
Wind  
Wind Speed 4 mph (SE)    
Max Wind Speed 13 mph    
Max Gust Speed -    
Visibility 7 miles    
Events Rain    
Averages and records for this station are not official NWS values.
T = Trace of Precipitation, MM = Missing Value Source: NWS Daily Summary

Daily Weather History Graph

Daily Weather History Graph

Search for Another Location

Airport or City:

Trip Planner

Search our weather history database for the weather conditions in past years. The results will help you decide how hot, cold, wet, or windy it might be!

Date:

Astronomy

Dec. 05, 2014 Rise Set
Actual Time 7:37 AM EST 4:56 PM EST
Civil Twilight 7:06 AM EST 5:27 PM EST
Nautical Twilight 6:32 AM EST 6:02 PM EST
Astronomical Twilight 5:58 AM EST 6:36 PM EST
Moon 4:44 PM EST (12/5) 6:28 AM EST (12/5)
Length of Visible Light 10h 21m
Length of Day
9h 19m
Waxing Gibbous, 99% of the Moon is Illuminated
Dec 5
Waxing Gibbous
Dec 6
Full
Dec 14
Last Quarter
Dec 21
New
Dec 28
First Quarter

Hourly Weather History & Observations

Time (EST) Temp. Windchill Dew Point Humidity Pressure Visibility Wind Dir Wind Speed Gust Speed Precip Events Conditions
12:53 AM 34.0 °F 28.8 °F 24.1 °F 67% 30.38 in 10.0 mi SE 5.8 mph - N/A   Overcast
1:53 AM 35.1 °F 30.1 °F 23.0 °F 61% 30.36 in 10.0 mi East 5.8 mph - N/A   Overcast
2:53 AM 35.1 °F 31.0 °F 24.1 °F 64% 30.35 in 10.0 mi East 4.6 mph - N/A   Overcast
3:53 AM 35.1 °F - 23.0 °F 61% 30.35 in 10.0 mi Calm Calm - N/A   Overcast
4:53 AM 35.1 °F 32.2 °F 21.9 °F 59% 30.32 in 10.0 mi ESE 3.5 mph - N/A   Overcast
5:53 AM 36.0 °F 32.1 °F 23.0 °F 59% 30.31 in 10.0 mi ESE 4.6 mph - N/A   Overcast
6:53 AM 36.0 °F 33.3 °F 23.0 °F 59% 30.30 in 10.0 mi ESE 3.5 mph - N/A   Overcast
7:53 AM 36.0 °F 32.1 °F 25.0 °F 64% 30.30 in 10.0 mi SE 4.6 mph - N/A   Overcast
8:53 AM 37.0 °F 31.6 °F 27.0 °F 67% 30.30 in 10.0 mi SE 6.9 mph - N/A   Overcast
9:53 AM 37.0 °F 28.9 °F 28.0 °F 70% 30.29 in 10.0 mi SSE 12.7 mph - N/A   Overcast
10:53 AM 39.0 °F 32.8 °F 28.9 °F 67% 30.27 in 10.0 mi SE 9.2 mph - N/A   Overcast
11:53 AM 39.9 °F 35.1 °F 30.0 °F 68% 30.25 in 10.0 mi SSE 6.9 mph - N/A   Overcast
12:18 PM 41.0 °F 36.4 °F 30.9 °F 67% 30.22 in 10.0 mi SE 6.9 mph - N/A   Overcast
12:53 PM 41.0 °F 35.2 °F 32.0 °F 70% 30.22 in 10.0 mi SSE 9.2 mph - N/A   Overcast
1:08 PM 41.0 °F 37.1 °F 32.0 °F 70% 30.20 in 10.0 mi SE 5.8 mph - N/A   Overcast
1:53 PM 41.0 °F 36.4 °F 32.0 °F 70% 30.22 in 10.0 mi SSE 6.9 mph - N/A   Overcast
2:53 PM 42.1 °F 37.7 °F 33.1 °F 70% 30.20 in 10.0 mi SSE 6.9 mph - N/A   Overcast
3:53 PM 42.1 °F 37.7 °F 34.0 °F 73% 30.20 in 10.0 mi SE 6.9 mph - N/A   Overcast
4:53 PM 42.1 °F 39.2 °F 34.0 °F 73% 30.20 in 9.0 mi SE 4.6 mph - N/A   Overcast
5:53 PM 42.1 °F 39.2 °F 35.1 °F 76% 30.20 in 8.0 mi SSE 4.6 mph - N/A   Overcast
6:53 PM 41.0 °F 36.4 °F 37.0 °F 86% 30.21 in 6.0 mi SSE 6.9 mph - 0.01 in Rain Light Rain
7:06 PM 41.0 °F 37.1 °F 37.0 °F 86% 30.20 in 6.0 mi SE 5.8 mph - 0.00 in   Overcast
7:50 PM 41.0 °F - 37.4 °F 87% 30.20 in 5.0 mi Calm Calm - 0.00 in   Overcast
7:53 PM 41.0 °F - 37.9 °F 89% 30.21 in 5.0 mi Calm Calm - 0.01 in Rain Light Rain
8:18 PM 39.9 °F 37.8 °F 37.9 °F 93% 30.21 in 5.0 mi South 3.5 mph - 0.00 in Rain Light Rain
8:46 PM 41.0 °F 39.0 °F 37.9 °F 89% 30.20 in 4.0 mi South 3.5 mph - 0.01 in   Overcast
8:53 PM 41.0 °F - 37.9 °F 89% 30.21 in 4.0 mi Calm Calm - 0.01 in Rain Light Rain
9:18 PM 39.9 °F - 37.9 °F 93% 30.19 in 3.0 mi Calm Calm - 0.02 in Rain Light Rain
9:53 PM 39.9 °F 37.8 °F 37.9 °F 93% 30.19 in 3.0 mi NNE 3.5 mph - 0.03 in Rain Light Rain
10:15 PM 39.9 °F - 37.9 °F 93% 30.18 in 3.0 mi Calm Calm - 0.01 in Rain Light Rain
10:26 PM 39.9 °F 37.8 °F 37.9 °F 93% 30.18 in 2.5 mi North 3.5 mph - 0.02 in Rain Light Rain
10:41 PM 39.9 °F - 39.0 °F 97% 30.18 in 2.5 mi Calm Calm - 0.03 in Rain Light Rain
10:48 PM 39.2 °F - 39.2 °F 100% 30.18 in 3.0 mi Calm Calm - 0.03 in Rain Light Rain
10:53 PM 39.9 °F - 39.0 °F 97% 30.19 in 2.5 mi Calm Calm - 0.03 in Rain Light Rain
11:12 PM 39.9 °F - 37.9 °F 93% 30.17 in 1.5 mi Calm Calm - 0.01 in Rain Light Rain
11:21 PM 39.9 °F - 37.9 °F 93% 30.17 in 2.0 mi Calm Calm - 0.02 in Rain Light Rain
11:29 PM 39.9 °F - 37.9 °F 93% 30.16 in 1.8 mi Calm Calm - 0.02 in Rain Light Rain
11:48 PM 39.2 °F - 39.2 °F 100% 30.17 in 2.0 mi Calm Calm - 0.04 in Rain Light Rain
11:53 PM 39.9 °F - 39.0 °F 97% 30.18 in 2.0 mi Calm Calm - 0.04 in Rain Light Rain